STARLINK-1753 (46571 NORAD) Tracking and Keplerian Element Data

This shows tracking and keplerian element data for the satellite.

Feedback or suggestion? Click here.




ElementValue
Catalog46571
NameSTARLINK-1753
Epoch Orbit177
Epoch Day304.91667824
Epoch Year2020
RAAN321.8836
Inclination53.0021
Eccentricity9.98E-05
Argument of Perigee60.9133
Mean Anonmoly221.9213
Mean Motion15.62676405
Decay Rate0.00081518
L11 46571U 20070AR 20304.91667824 .00081518 00000-0 88983-3 0 9996
L22 46571 53.0021 321.8836 0000998 60.9133 221.9213 15.62676405 1772

Live tracking and technical data element details for STARLINK-1753 (NORAD 46571). STARLINK-1753 can be tracked NOW for your location showing map with azimuth and elevation plus other details from your city location.

Track the satellite on the map from your city or location and see movement details for azimuth, elevation, latitude, longitude, range, height, and movement on the map or in text.







IsCatalogInMostPopularTable: catalog: 46571, numindb: 3
Update: records affected: 1



GetName: 46571 STARLINK-1753

Hit Count: updated at: Sat, 31 Oct 2020 10:55:14 GMT